[[{"header":{"parameterUnit":"m.s-1","parameterCategory":1,"la1":30.2991,"la2":30.254,"lo1":-89.0895,"lo2":-89.0444,"dx":0.0017,"dy":0.0017,"nx":28,"ny":28,"refTime":"2022-12-16T09:00:00:Z","depth":0,"parameterNumber":2,"parameterNumberName":"U-component_of_WINDS"},"data":[0,0,0,0,0,0,0,0,0,0,0,0,0,0,0,0,0,0,0,0,0,0,0,0,0,0,0,0,0,0,0,0,0,0,0,0,0,0,0,0,0,0,0,0,0,0,0,0,0,0,0,0,0,0,0,0,0,0,1.6113,1.6113,0,1.6133,1.6133,1.6133,1.6122,1.6122,1.6121,1.6121,1.6139,1.614,1.6141,0,0,0,0,0,0,0,0,0,0,0,0,0,1.6064,1.6065,1.6113,1.6113,1.6113,1.6133,1.6133,1.6133,1.6123,1.6122,1.6121,1.6121,1.6139,1.614,1.6141,0,0,0,0,0,0,0,0,0,0,0,0,0,1.6084,1.6065,1.6113,1.611,1.611,1.6133,1.6133,1.6133,1.6123,1.6122,1.6121,1.612,1.6139,1.614,1.6142,1.6167,0,0,1.6146,1.6147,0,0,0,0,0,0,0,0,1.6083,1.6086,1.611,1.611,1.611,1.6124,1.6122,1.6144,1.6123,1.6118,1.6121,1.612,1.6135,1.6137,1.6142,1.6168,1.6169,1.6146,1.6147,1.6148,1.6148,0,0,0,0,0,0,0,1.6082,1.6085,1.612,1.6111,1.6111,1.6108,1.611,1.6127,1.6131,1.6118,1.6118,1.612,1.6135,1.6141,1.6143,1.6169,1.6146,1.6148,1.6149,1.6149,1.6216,1.6217,0,0,0,0,0,0,1.6081,1.6084,1.612,1.6121,1.6095,1.6109,1.6112,1.6121,1.613,1.6131,1.6121,1.612,1.6139,1.6141,1.6143,1.6173,1.6148,1.6149,1.615,1.6215,1.6217,1.6218,0,0,0,0,0,0,1.608,1.6084,1.6119,1.6102,1.6107,1.6111,1.6121,1.6121,1.6127,1.6132,1.6133,1.6126,1.6138,1.6141,1.6161,1.6174,1.615,1.6151,1.6214,1.6216,1.6217,1.6233,0,0,0,0,0,0,1.6078,1.6084,1.6094,1.6103,1.6108,1.6137,1.6122,1.6122,1.613,1.6129,1.6138,1.6138,1.6138,1.6159,1.6163,1.6175,1.6152,1.6213,1.6215,1.6217,1.6232,1.6235,1.6238,0,0,0,0,0,1.6077,1.6097,1.6094,1.6098,1.612,1.6138,1.6141,1.614,1.6131,1.6141,1.6144,1.6138,1.6172,1.6161,1.6165,1.6178,1.6212,1.6215,1.6216,1.623,1.6234,1.6238,0,0,0,0,0,0,1.6088,1.6098,1.6095,1.6119,1.6128,1.6136,1.6148,1.6144,1.6155,1.6153,1.6152,1.6154,1.6175,1.6179,1.6167,1.6203,1.6191,1.6194,1.62,1.6204,1.6207,1.6205,1.6154,0,0,0,0,0,1.6093,1.6108,1.6115,1.6136,1.6141,1.6144,1.6151,1.6151,1.6159,1.6163,1.6167,1.6176,1.6188,1.6196,1.6208,1.6233,1.6234,1.6244,1.6247,1.6249,1.6252,1.6265,1.6269,1.6224,1.6224,1.6224,0,0,1.6104,1.6112,1.612,1.6138,1.6145,1.6159,1.6147,1.6162,1.6173,1.6165,1.6184,1.6188,1.6197,1.622,1.623,1.6224,1.6265,1.6252,1.6254,1.6255,1.6267,1.6271,1.6275,1.6225,1.6225,1.6225,0,0,1.6131,1.6139,1.6156,1.6164,1.6175,1.6177,1.6181,1.6191,1.6193,1.6213,1.6207,1.622,1.6241,1.6248,1.6254,1.6286,1.628,1.629,1.6305,1.6318,1.6321,1.6324,1.6335,1.6339,1.6292,1.6292,1.6292,0,1.6143,1.6165,1.6166,1.6182,1.619,1.6185,1.6202,1.6209,1.6223,1.6228,1.6222,1.6249,1.6255,1.6279,1.6287,1.6292,1.6296,1.6288,1.6321,1.6324,1.6327,1.6337,1.6341,1.6293,1.6293,1.6293,1.6293,0,1.6179,1.6194,1.6207,1.6222,1.6231,1.6248,1.6251,1.626,1.6259,1.6262,1.6282,1.6289,1.6302,1.6308,1.6307,1.6332,1.6328,1.6321,1.6308,1.6332,1.6341,1.6345,1.6294,1.6294,1.6294,1.6293,0,0,1.6212,1.6228,1.6232,1.6239,1.6251,1.6263,1.6279,1.6293,1.6301,1.6311,1.6325,1.6344,1.6338,1.6345,1.6345,1.6356,1.638,1.6348,1.6348,1.6353,1.6407,1.6412,1.6416,1.6377,1.6378,1.6378,1.6406,0,1.6239,1.6269,1.6271,1.6297,1.6311,1.6307,1.6322,1.6331,1.6334,1.6346,1.635,1.6364,1.6355,1.6359,1.6371,1.6374,1.639,1.6373,1.6388,1.6389,1.6385,1.6421,1.6425,1.6451,1.641,1.6411,1.6411,0,1.6274,1.6287,1.6315,1.6326,1.6332,1.6345,1.6358,1.637,1.638,1.6381,1.639,1.6388,1.6405,1.6393,1.6416,1.6404,1.641,1.6413,1.6414,1.6415,1.6401,1.6421,1.646,1.6463,1.6417,1.6417,1.6416,0,1.6295,1.6318,1.6338,1.6344,1.6357,1.6367,1.6372,1.6382,1.639,1.6402,1.6407,1.642,1.6427,1.6437,1.6438,1.643,1.6461,1.6449,1.6462,1.6462,1.6468,1.6467,1.6507,1.6474,1.6474,1.6474,1.6474,0,1.6324,1.6341,1.6348,1.636,1.6379,1.6381,1.64,1.6405,1.6414,1.6427,1.6424,1.6436,1.6438,1.645,1.6452,1.647,1.6474,1.6475,1.6475,1.6475,1.6474,1.6478,1.6476,1.6475,1.6475,1.6475,1.6475,0,1.6349,1.6354,1.6376,1.6387,1.639,1.6404,1.6413,1.6425,1.6429,1.6445,1.6449,1.6455,1.6469,1.6473,1.6489,1.649,1.6512,1.6511,1.6509,1.6508,1.6521,1.6519,1.6563,1.6569,1.6534,1.6534,1.6534,0,1.6367,1.638,1.6393,1.6402,1.6409,1.6423,1.6432,1.6435,1.6444,1.6457,1.6467,1.6482,1.6493,1.6516,1.6522,1.6535,1.6533,1.6548,1.6535,1.6534,1.6532,1.6531,1.6532,1.655,1.655,1.655,1.6551,0,1.6398,1.64,1.6413,1.6427,1.6438,1.645,1.646,1.6468,1.6472,1.6482,1.6498,1.6507,1.6525,1.6539,1.6552,1.6558,1.6555,1.6555,1.6559,1.6558,1.6555,1.6556,1.6514,1.6553,1.6553,1.6553,1.6553,1.6553,1.6419,1.6431,1.6442,1.6457,1.6466,1.6476,1.6488,1.6494,1.6507,1.6522,1.6523,1.6539,1.655,1.6567,1.6574,1.6586,1.6582,1.6587,1.6588,1.6589,1.659,1.6555,1.6589,1.6589,1.6589,1.6589,1.6589,0,1.6449,1.6456,1.647,1.6486,1.6498,1.6495,1.6507,1.6517,1.6532,1.6542,1.6554,1.6572,1.6586,1.6593,1.6607,1.6615,1.6614,1.6619,1.6617,1.6619,1.6594,1.6589,1.6619,1.6619,1.6619,1.6619,1.6619,1.6619,1.6465,1.6485,1.6489,1.6513,1.652,1.6537,1.6544,1.6554,1.6562,1.6582,1.6594,1.6599,1.6608,1.6623,1.6635,1.6637,1.6642,1.6647,1.6648,1.6624,1.662,1.6617,1.6613,1.6648,1.6648,1.6671,1.6672,1.6672]},{"header":{"parameterUnit":"m.s-1","parameterCategory":1,"la1":30.2991,"la2":30.254,"lo1":-89.0895,"lo2":-89.0444,"dx":0.0017,"dy":0.0017,"nx":28,"ny":28,"refTime":"2022-12-16T09:00:00:Z","depth":0,"parameterNumber":3,"parameterNumberName":"V-component_of_WINDS"},"data":[0,0,0,0,0,0,0,0,0,0,0,0,0,0,0,0,0,0,0,0,0,0,0,0,0,0,0,0,0,0,0,0,0,0,0,0,0,0,0,0,0,0,0,0,0,0,0,0,0,0,0,0,0,0,0,0,0,0,-4.6893,-4.6895,0,-4.7089,-4.7092,-4.7094,-4.7047,-4.7044,-4.704,-4.7036,-4.7237,-4.7245,-4.7254,0,0,0,0,0,0,0,0,0,0,0,0,0,-4.6476,-4.6484,-4.6892,-4.6895,-4.6897,-4.7089,-4.7092,-4.7094,-4.7048,-4.7043,-4.7039,-4.7035,-4.7234,-4.7244,-4.7255,0,0,0,0,0,0,0,0,0,0,0,0,0,-4.6663,-4.6487,-4.6892,-4.6897,-4.69,-4.7088,-4.7092,-4.7095,-4.7049,-4.7043,-4.7038,-4.7032,-4.723,-4.7243,-4.7256,-4.7451,0,0,-4.7297,-4.7303,0,0,0,0,0,0,0,0,-4.6653,-4.6679,-4.6894,-4.6897,-4.6901,-4.7038,-4.7018,-4.7214,-4.705,-4.6992,-4.7036,-4.703,-4.7175,-4.7193,-4.7242,-4.7461,-4.7469,-4.7298,-4.7306,-4.7312,-4.7315,0,0,0,0,0,0,0,-4.664,-4.667,-4.697,-4.6897,-4.6901,-4.689,-4.691,-4.7055,-4.7113,-4.6997,-4.6994,-4.7018,-4.7176,-4.7229,-4.7246,-4.7472,-4.7298,-4.7309,-4.7318,-4.7323,-4.7861,-4.7867,0,0,0,0,0,0,-4.6624,-4.6659,-4.6964,-4.6976,-4.676,-4.6902,-4.6925,-4.7,-4.7111,-4.7123,-4.7023,-4.7015,-4.7209,-4.7231,-4.7253,-4.7489,-4.7312,-4.7324,-4.7332,-4.7854,-4.7862,-4.7869,0,0,0,0,0,0,-4.6616,-4.6652,-4.6956,-4.6817,-4.6855,-4.6915,-4.7,-4.7006,-4.706,-4.7131,-4.7141,-4.7067,-4.7206,-4.7234,-4.7402,-4.7495,-4.733,-4.7342,-4.7847,-4.7857,-4.7866,-4.7962,0,0,0,0,0,0,-4.6604,-4.6649,-4.6724,-4.6819,-4.6863,-4.7103,-4.7005,-4.7014,-4.7083,-4.7075,-4.7175,-4.7186,-4.7203,-4.7383,-4.7416,-4.751,-4.7352,-4.7839,-4.7851,-4.7863,-4.7951,-4.7974,-4.7993,0,0,0,0,0,-4.6589,-4.6743,-4.6728,-4.6765,-4.6958,-4.7108,-4.7133,-4.7151,-4.7091,-4.7166,-4.7212,-4.7183,-4.748,-4.74,-4.7437,-4.7537,-4.7833,-4.7848,-4.7862,-4.7941,-4.7969,-4.7993,0,0,0,0,0,0,-4.6657,-4.6756,-4.674,-4.693,-4.7011,-4.71,-4.7196,-4.7179,-4.7279,-4.7268,-4.7285,-4.7308,-4.7479,-4.7525,-4.7435,-4.7732,-4.7648,-4.767,-4.7696,-4.7723,-4.7744,-4.7729,-4.7363,0,0,0,0,0,-4.6694,-4.6809,-4.6889,-4.7048,-4.709,-4.7136,-4.7203,-4.7209,-4.7294,-4.7328,-4.7385,-4.7469,-4.7581,-4.7654,-4.7761,-4.7957,-4.7978,-4.8044,-4.8065,-4.8082,-4.8101,-4.8208,-4.8239,-4.7916,-4.7916,-4.7915,0,0,-4.6772,-4.684,-4.6911,-4.7064,-4.7127,-4.7245,-4.7166,-4.7294,-4.7381,-4.7347,-4.751,-4.7555,-4.7649,-4.7832,-4.7915,-4.7875,-4.8195,-4.81,-4.8113,-4.8123,-4.8226,-4.8257,-4.8284,-4.7925,-4.7924,-4.7922,0,0,-4.6975,-4.7038,-4.7178,-4.7243,-4.7341,-4.7371,-4.7404,-4.7496,-4.7525,-4.7688,-4.7665,-4.7769,-4.7962,-4.803,-4.809,-4.8317,-4.8294,-4.8352,-4.8463,-4.8567,-4.8592,-4.8615,-4.8697,-4.8726,-4.837,-4.8371,-4.8371,0,-4.7059,-4.7236,-4.7251,-4.7382,-4.745,-4.7424,-4.7566,-4.7629,-4.7756,-4.7804,-4.7757,-4.7998,-4.8059,-4.8258,-4.8313,-4.8362,-4.8401,-4.8341,-4.8587,-4.861,-4.8632,-4.871,-4.874,-4.8377,-4.8376,-4.8376,-4.8375,0,-4.7336,-4.7459,-4.756,-4.7684,-4.7763,-4.7899,-4.7934,-4.8012,-4.8011,-4.8046,-4.8212,-4.8285,-4.8406,-4.8454,-4.8454,-4.8653,-4.8625,-4.8583,-4.8499,-4.8668,-4.8742,-4.8772,-4.8386,-4.8384,-4.8382,-4.838,0,0,-4.7587,-4.7718,-4.7755,-4.7811,-4.7917,-4.8012,-4.8146,-4.8265,-4.8332,-4.842,-4.8533,-4.8697,-4.8658,-4.8726,-4.8734,-4.8825,-4.9002,-4.8772,-4.8774,-4.8813,-4.9225,-4.9257,-4.9291,-4.8986,-4.8992,-4.8997,-4.9217,0,-4.78,-4.8037,-4.8054,-4.8268,-4.8382,-4.8359,-4.8476,-4.8553,-4.8589,-4.869,-4.8729,-4.8845,-4.8786,-4.8827,-4.8916,-4.8961,-4.9085,-4.8945,-4.9092,-4.9097,-4.907,-4.933,-4.9364,-4.9568,-4.9246,-4.9251,-4.9255,0,-4.8079,-4.8177,-4.8402,-4.8492,-4.854,-4.8645,-4.8755,-4.8853,-4.894,-4.8959,-4.9035,-4.903,-4.9167,-4.9078,-4.9267,-4.9172,-4.9233,-4.9264,-4.9272,-4.9287,-4.9187,-4.9352,-4.9634,-4.9665,-4.93,-4.9296,-4.9293,0,-4.8241,-4.8428,-4.8587,-4.8636,-4.8744,-4.8819,-4.8867,-4.8948,-4.9019,-4.9115,-4.9161,-4.9271,-4.9332,-4.9418,-4.9443,-4.9375,-4.9632,-4.9544,-4.9652,-4.9652,-4.9708,-4.9704,-5.0004,-4.9746,-4.9746,-4.9745,-4.9744,0,-4.8477,-4.8616,-4.8662,-4.876,-4.8914,-4.8933,-4.9085,-4.9129,-4.9202,-4.9308,-4.9294,-4.9393,-4.942,-4.9524,-4.9545,-4.9699,-4.9726,-4.9746,-4.9749,-4.9748,-4.9745,-4.9788,-4.9775,-4.9753,-4.9751,-4.975,-4.9748,0,-4.8684,-4.872,-4.8892,-4.8981,-4.9006,-4.9116,-4.9192,-4.9286,-4.9319,-4.9454,-4.9486,-4.9539,-4.9661,-4.9694,-4.984,-4.9853,-5.0035,-5.0025,-5.0006,-5.0006,-5.0112,-5.0102,-5.0451,-5.0498,-5.0208,-5.0211,-5.0213,0,-4.8833,-4.8939,-4.9039,-4.9109,-4.9161,-4.9274,-4.9345,-4.9367,-4.9442,-4.9549,-4.9631,-4.9751,-4.9849,-5.0045,-5.0096,-5.0207,-5.0201,-5.0315,-5.0217,-5.0212,-5.0203,-5.0197,-5.0208,-5.0334,-5.0337,-5.0339,-5.0341,0,-4.9093,-4.9105,-4.9209,-4.9321,-4.9407,-4.9495,-4.9579,-4.9637,-4.9671,-4.9756,-4.9881,-4.9957,-5.0106,-5.0226,-5.0338,-5.0388,-5.0371,-5.0372,-5.0403,-5.0402,-5.0387,-5.0397,-5.0058,-5.0364,-5.0362,-5.036,-5.0359,-5.0358,-4.9276,-4.9369,-4.9454,-4.9571,-4.9637,-4.9716,-4.9809,-4.9854,-4.9958,-5.0082,-5.0088,-5.0224,-5.0308,-5.0457,-5.0513,-5.0619,-5.0585,-5.0629,-5.0641,-5.0652,-5.0661,-5.0369,-5.0639,-5.0639,-5.0638,-5.0638,-5.0637,0,-4.9536,-4.9589,-4.9696,-4.9815,-4.9907,-4.9882,-4.9974,-5.0053,-5.0172,-5.0252,-5.0348,-5.0492,-5.0608,-5.0668,-5.0783,-5.0856,-5.0852,-5.0886,-5.0881,-5.0893,-5.0685,-5.0647,-5.0888,-5.0888,-5.0888,-5.0888,-5.0888,-5.0888,-4.9682,-4.9839,-4.9862,-5.0051,-5.0103,-5.0236,-5.0291,-5.0364,-5.0428,-5.0589,-5.0685,-5.0724,-5.0796,-5.0916,-5.1021,-5.1035,-5.1079,-5.1118,-5.1128,-5.0933,-5.0908,-5.0883,-5.0848,-5.1127,-5.1127,-5.1327,-5.1329,-5.1331]}]]